GW6754 Weather Reports


time (UTC)temp
F
wind
direction
speed
knots
gust
knots
rain 1hr
in
rain 24hr
in
rain mn
in
humidity
%
barometer
mb
20260504160227 76 208 7.0 13.0 0.00 0.00 0.00 65 1015.9
20260504150239 73 162 5.2 11.3 0.00 0.00 0.00 69 1015.9
20260504141236 69 121 2.6 7.8 0.00 0.00 0.00 73 1016.0
20260504140244 69 187 4.3 7.8 0.00 0.00 0.00 74 1016.2
20260504130234 63 171 0.9 5.2 0.00 0.00 0.00 78 1016.0
20260504120247 60 187 0.9 3.5 0.00 0.00 0.00 78 1015.6
20260504110236 60 135 0.0 0.9 0.00 0.00 0.00 79 1015.8
20260504100228 61 171 0.9 2.6 0.00 0.00 0.00 77 1015.6
20260504081237 62 175 0.9 3.5 0.00 0.00 0.00 77 1016.4
20260504080225 62 171 0.9 3.5 0.00 0.00 0.00 77 1016.5
20260504070233 62 190 0.9 3.5 0.00 0.00 0.00 78 1017.6
20260504060248 63 194 0.9 2.6 0.00 0.00 0.00 76 1018.2
20260504050237 63 186 0.9 2.6 0.00 0.00 0.00 76 1018.7
20260504045228 63 192 0.9 2.6 0.00 0.00 0.00 75 1018.8
20260504044254 64 193 0.9 2.6 0.00 0.00 0.00 75 1018.9
20260504043302 64 197 0.0 1.7 0.00 0.00 0.00 74 1018.9
20260504042230 64 197 0.0 2.6 0.00 0.00 0.00 73 1018.8
20260504041236 64 197 0.9 2.6 0.00 0.00 0.00 72 1018.9
20260504040227 65 205 1.7 4.3 0.00 0.00 0.00 71 1019.1
20260504035235 65 183 1.7 3.5 0.00 0.00 0.00 70 1018.9
20260504034239 65 192 1.7 4.3 0.00 0.00 0.00 70 1019.0
20260504033228 66 184 1.7 3.5 0.00 0.00 0.00 69 1018.8
20260504032240 66 177 1.7 4.3 0.00 0.00 0.00 68 1018.8
20260504031246 66 192 2.6 5.2 0.00 0.00 0.00 67 1018.9
20260504030235 67 166 2.6 4.3 0.00 0.00 0.00 66 1018.6
20260504025242 67 192 2.6 4.3 0.00 0.00 0.00 65 1018.6
20260504024231 68 183 2.6 5.2 0.00 0.00 0.00 65 1018.6
20260504023240 68 165 1.7 5.2 0.00 0.00 0.00 63 1018.5
20260504022227 69 184 3.5 5.2 0.00 0.00 0.00 61 1018.4
20260504021233 70 160 2.6 7.0 0.00 0.00 0.00 60 1018.2
20260504015252 70 169 1.7 6.1 0.00 0.00 0.00 58 1018.1
20260504014237 71 195 1.7 5.2 0.00 0.00 0.00 57 1018.0
20260504013226 72 189 1.7 5.2 0.00 0.00 0.00 56 1018.0
20260504012238 72 174 1.7 6.1 0.00 0.00 0.00 55 1017.9
20260504011304 73 165 1.7 5.2 0.00 0.00 0.00 54 1017.8
20260504010228 73 173 0.9 4.3 0.00 0.00 0.00 54 1017.9
20260504005237 74 160 1.7 7.0 0.00 0.00 0.00 51 1017.8
20260504004223 75 181 3.5 6.1 0.00 0.00 0.00 50 1017.8
20260504003236 76 123 0.9 7.0 0.00 0.00 0.00 48 1017.9
20260504002243 76 165 0.9 4.3 0.00 0.00 0.00 46 1017.9
20260504001249 76 179 0.9 3.5 0.00 0.00 0.00 44 1017.9
20260504000256 77 174 0.0 3.5 0.00 0.00 0.00 43 1018.0
20260503235227 77 179 0.9 2.6 0.00 0.00 0.00 42 1017.9
20260503234232 77 204 0.9 4.3 0.00 0.00 0.00 41 1017.9
20260503233302 78 116 0.9 4.3 0.00 0.00 0.00 41 1018.0
20260503232227 78 194 3.5 7.0 0.00 0.00 0.00 39 1018.2
20260503231237 78 176 2.6 5.2 0.00 0.00 0.00 39 1018.2
20260503230225 79 171 2.6 7.8 0.00 0.00 0.00 38 1018.5
20260503225233 79 170 2.6 6.1 0.00 0.00 0.00 40 1018.3
20260503224239 79 146 3.5 7.0 0.00 0.00 0.00 36 1018.5
20260503223231 79 71 2.6 7.0 0.00 0.00 0.00 39 1018.6
20260503222238 79 150 2.6 8.7 0.00 0.00 0.00 38 1018.8
20260503221225 80 181 3.5 8.7 0.00 0.00 0.00 37 1018.8
20260503220235 80 204 6.1 9.6 0.00 0.00 0.00 35 1019.1
20260503215225 80 178 3.5 8.7 0.00 0.00 0.00 37 1019.3
20260503214228 80 208 2.6 7.0 0.00 0.00 0.00 37 1019.2
20260503213254 81 173 0.9 6.1 0.00 0.00 0.00 37 1019.4
20260503212258 81 167 1.7 7.8 0.00 0.00 0.00 37 1019.5
20260503211239 81 204 2.6 7.8 0.00 0.00 0.00 37 1019.8
20260503210228 81 96 1.7 7.0 0.00 0.00 0.00 40 1019.7
20260503205232 81 175 3.5 8.7 0.00 0.00 0.00 38 1020.0
20260503204233 81 126 0.9 7.0 0.00 0.00 0.00 39 1020.2
20260503203240 81 175 3.5 7.8 0.00 0.00 0.00 39 1020.3
20260503202227 81 169 2.6 6.1 0.00 0.00 0.00 38 1020.4
20260503201249 81 146 4.3 9.6 0.00 0.00 0.00 38 1020.5
20260503200234 81 204 2.6 8.7 0.00 0.00 0.00 38 1020.7
20260503195239 81 162 2.6 6.1 0.00 0.00 0.00 38 1020.9
20260503194226 81 52 0.9 3.5 0.00 0.00 0.00 43 1021.0
20260503193250 81 108 0.9 7.8 0.00 0.00 0.00 41 1021.2
20260503192234 80 156 0.9 8.7 0.00 0.00 0.00 41 1021.3
20260503191238 80 54 0.9 7.0 0.00 0.00 0.00 44 1021.4
20260503190242 80 247 0.9 7.0 0.00 0.00 0.00 38 1021.6
20260503185230 79 175 2.6 7.8 0.00 0.00 0.00 43 1021.8
20260503184233 80 168 1.7 8.7 0.00 0.00 0.00 40 1021.9
20260503183237 80 88 1.7 6.1 0.00 0.00 0.00 40 1022.1
20260503182242 80 182 3.5 7.8 0.00 0.00 0.00 40 1022.2
20260503181229 79 192 0.9 5.2 0.00 0.00 0.00 42 1022.3
20260503180234 79 73 0.9 2.6 0.00 0.00 0.00 44 1022.4
20260503175238 78 192 1.7 7.8 0.00 0.00 0.00 41 1022.7
20260503174241 78 150 3.5 7.8 0.00 0.00 0.00 42 1022.9
20260503173251 78 73 0.9 7.0 0.00 0.00 0.00 45 1023.0
20260503172234 77 133 3.5 8.7 0.00 0.00 0.00 43 1023.1
20260503171236 77 227 3.5 7.8 0.00 0.00 0.00 43 1023.3
20260503170304 77 171 5.2 10.4 0.00 0.00 0.00 44 1023.4